Satellite: MET-3/5
Catalog number: 21655
Epoch time:      06054.48697947
Element set:      45
Inclination:      082.5596 deg
RA of node:       341.1286 deg
Eccentricity:    0.0012934
Arg of perigee:   330.4668 deg
Mean anomaly:     029.5697 deg
Mean motion:   13.17005243 rev/day
Decay rate:        5.1e-07 rev/day^2
Epoch rev:           69839
Checksum:              330

Satellite: MET-2/21
Catalog number: 22782
Epoch time:      06054.56886988
Element set:     437
Inclination:      082.5452 deg
RA of node:       061.5808 deg
Eccentricity:    0.0023695
Arg of perigee:   136.1097 deg
Mean anomaly:     224.1950 deg
Mean motion:   13.83601468 rev/day
Decay rate:       -3.0e-08 rev/day^2
Epoch rev:           63033
Checksum:              313

Satellite: OKEAN-4
Catalog number: 23317
Epoch time:      06053.80156951
Element set:    0873
Inclination:      082.5397 deg
RA of node:       023.6848 deg
Eccentricity:    0.0023533
Arg of perigee:   034.9732 deg
Mean anomaly:     325.3037 deg
Mean motion:   14.82312050 rev/day
Decay rate:       2.53e-06 rev/day^2
Epoch rev:           61303
Checksum:              278

Satellite: NOAA-14
Catalog number: 23455
Epoch time:      06054.27586926
Element set:      12
Inclination:      099.0547 deg
RA of node:       111.2547 deg
Eccentricity:    0.0009371
Arg of perigee:   017.3990 deg
Mean anomaly:     342.7518 deg
Mean motion:   14.13638760 rev/day
Decay rate:       3.12e-06 rev/day^2
Epoch rev:           57497
Checksum:              308

Satellite: SICH-1
Catalog number: 23657
Epoch time:      06054.59661680
Element set:     678
Inclination:      082.5313 deg
RA of node:       163.8266 deg
Eccentricity:    0.0024591
Arg of perigee:   020.3751 deg
Mean anomaly:     339.8442 deg
Mean motion:   14.81315489 rev/day
Decay rate:       2.45e-06 rev/day^2
Epoch rev:           56517
Checksum:              316

Satellite: NOAA-15
Catalog number: 25338
Epoch time:      06054.24079147
Element set:     412
Inclination:      098.5169 deg
RA of node:       059.9517 deg
Eccentricity:    0.0010708
Arg of perigee:   351.9515 deg
Mean anomaly:     008.1492 deg
Mean motion:   14.24564300 rev/day
Decay rate:        1.7e-07 rev/day^2
Epoch rev:           40449
Checksum:              295

Satellite: RESURS
Catalog number: 25394
Epoch time:      06054.88499846
Element set:     308
Inclination:      098.5093 deg
RA of node:       121.5324 deg
Eccentricity:    0.0001980
Arg of perigee:   124.6324 deg
Mean anomaly:     235.5039 deg
Mean motion:   14.24095194 rev/day
Decay rate:       -4.5e-07 rev/day^2
Epoch rev:           39627
Checksum:              310

Satellite: FENGYUN1
Catalog number: 25730
Epoch time:      06054.87031322
Element set:     658
Inclination:      098.6207 deg
RA of node:       051.7331 deg
Eccentricity:    0.0015182
Arg of perigee:   101.7986 deg
Mean anomaly:     258.4888 deg
Mean motion:   14.11806875 rev/day
Decay rate:      -1.90e-06 rev/day^2
Epoch rev:           35002
Checksum:              293

Satellite: OKEAN-0
Catalog number: 25860
Epoch time:      06054.65939345
Element set:     676
Inclination:      097.7424 deg
RA of node:       074.2472 deg
Eccentricity:    0.0001706
Arg of perigee:   089.1786 deg
Mean anomaly:     270.9615 deg
Mean motion:   14.73338976 rev/day
Decay rate:        5.2e-07 rev/day^2
Epoch rev:           35503
Checksum:              326

Satellite: NOAA-16
Catalog number: 26536
Epoch time:      06054.22828252
Element set:     767
Inclination:      099.0515 deg
RA of node:       019.5900 deg
Eccentricity:    0.0011291
Arg of perigee:   080.3264 deg
Mean anomaly:     279.9175 deg
Mean motion:   14.12318975 rev/day
Decay rate:       3.05e-06 rev/day^2
Epoch rev:           27949
Checksum:              315

Satellite: NOAA-17
Catalog number: 27453
Epoch time:      06054.25392775
Element set:     790
Inclination:      098.6319 deg
RA of node:       128.6344 deg
Eccentricity:    0.0012317
Arg of perigee:   049.9978 deg
Mean anomaly:     310.2297 deg
Mean motion:   14.23752502 rev/day
Decay rate:        3.1e-07 rev/day^2
Epoch rev:           19056
Checksum:              315

Satellite: NOAA-18
Catalog number: 28654
Epoch time:      06054.24879203
Element set:     375
Inclination:      098.7759 deg
RA of node:       000.0327 deg
Eccentricity:    0.0014113
Arg of perigee:   181.0791 deg
Mean anomaly:     179.0356 deg
Mean motion:   14.10934629 rev/day
Decay rate:       3.94e-06 rev/day^2
Epoch rev:            3931
Checksum:              305

/EX
SB KEPS @ AMSAT  $ORB06054.M
Orbital Elements  06054.MISC

HR AMSAT ORBITAL ELEMENTS FOR MANNED AND MISCELLANEOUS SATELLITES
FROM WA5QGD FORT WORTH,TX February 23, 2006
Send SUBSCRIBE KEPS/UNSUBSCRIBE KEPS to majordomo@amsat.org only
BID: ORB06054.M
TO ALL RADIO AMATEURS BT

Satellite: HUBBLE
Catalog number: 20580
Epoch time:      06054.38681881
Element set:     552
Inclination:      028.4678 deg
RA of node:       071.6983 deg
Eccentricity:    0.0003595
Arg of perigee:   059.0825 deg
Mean anomaly:     301.0115 deg
Mean motion:   14.99969513 rev/day
Decay rate:       4.97e-06 rev/day^2
Epoch rev:           66799
Checksum:              338

Satellite: UARS
Catalog number: 21701
Epoch time:      06054.48445684
Element set:     695
Inclination:      056.9782 deg
RA of node:       222.0161 deg
Eccentricity:    0.0106080
Arg of perigee:   354.7372 deg
Mean anomaly:     005.2555 deg
Mean motion:   15.42228820 rev/day
Decay rate:      5.132e-05 rev/day^2
Epoch rev:           79175
Checksum:              290

